{"data":{"norad_id":68519,"intl_designator":"2026-068M","name":"STARLINK-36326","alt_names":[],"object_type":"PAYLOAD","status":"ACTIVE","operator":null,"country":"US","launch_date":"2026-03-30","launch_site_code":"AFETR","launch_vehicle":null,"mission":null,"orbit_class":"UNKNOWN","rcs_meters":null,"size_class":null,"mass_kg":null,"dimensions":null,"purposes":["comms"],"wikipedia_slug":null,"has_3d_model":false,"image_url":null,"decayed_at":null,"tle_current":{"epoch":"2026-05-25T02:50:26.075904Z","epoch_age_seconds":58699,"freshness":"FRESH","line1":"1 68519U 26068M   26145.11835736  .00026842  00000+0  80271-3 0  9995","line2":"2 68519  53.1586 133.0493 0000649  24.4629 335.6404 15.34400597  8661","mean_motion":15.34400597,"eccentricity":6.49e-5,"inclination_deg":53.1586,"raan_deg":133.0493,"arg_perigee_deg":24.4629,"mean_anomaly_deg":335.6404,"bstar":0.00080271,"rev_number":866,"period_min":93.847721567329,"perigee_km":462.25749538144,"apogee_km":463.1454362143,"semimajor_km":6840.8384657979,"source":"CELESTRAK","updated_at":"2026-05-25T13:38:21.954737Z"}}}